IBX53 RJOO-RJSS

Flight info

Callsign IBX53
Flight time 0h 56m
Altitude 35000
Route MINAC4 MINAC DCT YOKKA DCT KCC Y88 TENRU Y15 OWLET OWLEEB
Aircraft CRJ7/M-VGDW/C

Departure

Time 2026-04-15 06:43
Airport Osaka Itami International Airport (RJOO)

Arrival

Time 2026-04-15 07:39
Airport Sendai Airport (RJSS)
Time Latitude Longitude Altitude Speed Heading
2026-04-15 06:08 34.78717 135.44637 40 ft 0 kts 67°
2026-04-15 06:10 34.78719 135.44641 46 ft 0 kts 67°
2026-04-15 06:33 34.78719 135.44640 74 ft 0 kts 67°
2026-04-15 06:34 34.78719 135.44643 74 ft 1 kts 65°
2026-04-15 06:34 34.78726 135.44650 46 ft 1 kts 24°
2026-04-15 06:35 34.78732 135.44650 43 ft 1 kts 347°
2026-04-15 06:35 34.78738 135.44645 45 ft 2 kts 308°
2026-04-15 06:35 34.78739 135.44629 45 ft 2 kts 244°
2026-04-15 06:35 34.78729 135.44612 44 ft 3 kts 233°
2026-04-15 06:36 34.78718 135.44594 46 ft 3 kts 233°
2026-04-15 06:36 34.78705 135.44563 46 ft 6 kts 261°
2026-04-15 06:36 34.78701 135.44509 46 ft 7 kts 250°
2026-04-15 06:36 34.78669 135.44462 46 ft 8 kts 224°
2026-04-15 06:37 34.78625 135.44411 46 ft 9 kts 225°
2026-04-15 06:37 34.78587 135.44365 45 ft 7 kts 225°
2026-04-15 06:37 34.78550 135.44336 44 ft 6 kts 192°
2026-04-15 06:37 34.78510 135.44335 47 ft 6 kts 179°
2026-04-15 06:38 34.78469 135.44335 47 ft 5 kts 180°
2026-04-15 06:38 34.78445 135.44335 47 ft 1 kts 180°
2026-04-15 06:38 34.78443 135.44335 47 ft 0 kts 180°
2026-04-15 06:39 34.78435 135.44334 47 ft 2 kts 180°
2026-04-15 06:40 34.78412 135.44334 46 ft 4 kts 180°
2026-04-15 06:40 34.78388 135.44334 48 ft 3 kts 180°
2026-04-15 06:40 34.78369 135.44331 46 ft 3 kts 199°
2026-04-15 06:40 34.78352 135.44310 48 ft 3 kts 258°
2026-04-15 06:41 34.78354 135.44293 47 ft 2 kts 290°
2026-04-15 06:41 34.78365 135.44274 49 ft 3 kts 317°
2026-04-15 06:41 34.78366 135.44273 49 ft 0 kts 317°
2026-04-15 06:42 34.78368 135.44270 46 ft 3 kts 317°
2026-04-15 06:42 34.78507 135.44106 47 ft 60 kts 316°
2026-04-15 06:42 34.78951 135.43566 46 ft 118 kts 315°
2026-04-15 06:42 34.79635 135.42744 87 ft 157 kts 316°
2026-04-15 06:43 34.80427 135.41766 556 ft 163 kts 318°
2026-04-15 06:43 34.81047 135.40615 1041 ft 175 kts 286°
2026-04-15 06:43 34.80937 135.39110 1472 ft 183 kts 242°
2026-04-15 06:43 34.80078 135.38077 2085 ft 172 kts 202°
2026-04-15 06:44 34.78925 135.37863 2555 ft 167 kts 168°
2026-04-15 06:44 34.77895 135.38414 3058 ft 161 kts 138°
2026-04-15 06:44 34.77231 135.39455 3595 ft 155 kts 116°
2026-04-15 06:44 34.77065 135.40835 3690 ft 183 kts 78°
2026-04-15 06:45 34.77482 135.42418 3779 ft 211 kts 72°
2026-04-15 06:45 34.78017 135.44175 4150 ft 230 kts 70°
2026-04-15 06:45 34.78619 135.46059 4635 ft 245 kts 69°
2026-04-15 06:45 34.79264 135.48013 5278 ft 252 kts 69°
2026-04-15 06:46 34.79943 135.50006 5966 ft 258 kts 69°
2026-04-15 06:46 34.80329 135.52117 6605 ft 258 kts 98°
2026-04-15 06:46 34.79853 135.54217 7365 ft 265 kts 110°
2026-04-15 06:46 34.79331 135.56437 8053 ft 281 kts 104°
2026-04-15 06:47 34.79062 135.58846 8851 ft 293 kts 96°
2026-04-15 06:47 34.78961 135.61351 9764 ft 299 kts 93°
2026-04-15 06:47 34.78904 135.63912 10582 ft 306 kts 93°
2026-04-15 06:47 34.78841 135.66590 11045 ft 327 kts 92°
2026-04-15 06:48 34.78772 135.69432 11546 ft 345 kts 92°
2026-04-15 06:48 34.78726 135.72407 12085 ft 360 kts 87°
2026-04-15 06:48 34.79307 135.75413 12791 ft 369 kts 70°
2026-04-15 06:48 34.80240 135.78340 13567 ft 375 kts 67°
2026-04-15 06:49 34.81251 135.81296 14312 ft 380 kts 67°
2026-04-15 06:49 34.82267 135.84290 15026 ft 385 kts 68°
2026-04-15 06:49 34.83246 135.87341 15582 ft 389 kts 69°
2026-04-15 06:50 34.85148 135.93566 16693 ft 396 kts 69°
2026-04-15 06:50 34.86116 135.96727 17146 ft 401 kts 69°
2026-04-15 06:50 34.87098 135.99930 17651 ft 405 kts 69°
2026-04-15 06:50 34.88087 136.03155 18113 ft 409 kts 69°
2026-04-15 06:51 34.89085 136.06416 18510 ft 412 kts 70°
2026-04-15 06:51 34.90094 136.09702 18892 ft 415 kts 70°
2026-04-15 06:51 34.91103 136.13003 19264 ft 418 kts 70°
2026-04-15 06:51 34.92123 136.16332 19638 ft 420 kts 70°
2026-04-15 06:52 34.93144 136.19682 20025 ft 423 kts 70°
2026-04-15 06:52 34.94146 136.23014 20382 ft 425 kts 70°
2026-04-15 06:52 34.95181 136.26406 20748 ft 428 kts 70°
2026-04-15 06:52 34.96216 136.29813 21087 ft 430 kts 70°
2026-04-15 06:53 34.97208 136.33096 21366 ft 432 kts 70°
2026-04-15 06:53 34.98254 136.36537 21656 ft 434 kts 70°
2026-04-15 06:53 34.99303 136.39997 21963 ft 436 kts 70°
2026-04-15 06:53 35.00356 136.43468 22251 ft 438 kts 70°
2026-04-15 06:54 35.01506 136.46914 22484 ft 440 kts 62°
2026-04-15 06:54 35.03108 136.50101 22795 ft 441 kts 54°
2026-04-15 06:54 35.04918 136.53125 23067 ft 443 kts 52°
2026-04-15 06:54 35.06758 136.56153 23347 ft 445 kts 52°
2026-04-15 06:55 35.08562 136.59232 23582 ft 447 kts 54°
2026-04-15 06:55 35.10324 136.62388 23785 ft 450 kts 54°
2026-04-15 06:55 35.12089 136.65547 24013 ft 452 kts 54°
2026-04-15 06:55 35.13868 136.68717 24257 ft 454 kts 54°
2026-04-15 06:56 35.15077 136.70879 24416 ft 456 kts 54°
2026-04-15 06:56 35.16870 136.74082 24764 ft 459 kts 54°
2026-04-15 06:56 35.18652 136.77270 25071 ft 462 kts 54°
2026-04-15 06:56 35.20470 136.80522 25383 ft 465 kts 54°
2026-04-15 06:57 35.22301 136.83790 25687 ft 467 kts 54°
2026-04-15 06:57 35.24141 136.87086 25996 ft 470 kts 54°
2026-04-15 06:57 35.25985 136.90401 26289 ft 473 kts 56°
2026-04-15 06:57 35.27622 136.93914 26573 ft 476 kts 64°
2026-04-15 06:58 35.28954 136.97645 26844 ft 479 kts 68°
2026-04-15 06:58 35.30190 137.01437 27116 ft 481 kts 68°
2026-04-15 06:58 35.31465 137.05242 27400 ft 484 kts 67°
2026-04-15 06:58 35.32828 137.09020 27657 ft 486 kts 65°
2026-04-15 06:59 35.34226 137.12805 27903 ft 489 kts 65°
2026-04-15 06:59 35.35633 137.16605 28154 ft 491 kts 66°
2026-04-15 06:59 35.37045 137.20432 28393 ft 493 kts 66°
2026-04-15 06:59 35.38440 137.24276 28621 ft 496 kts 66°
2026-04-15 07:00 35.39838 137.28148 28860 ft 498 kts 66°
2026-04-15 07:00 35.41239 137.31979 29046 ft 501 kts 65°
2026-04-15 07:00 35.42715 137.35856 29248 ft 503 kts 65°
2026-04-15 07:00 35.44195 137.39750 29473 ft 505 kts 65°
2026-04-15 07:01 35.45675 137.43676 29668 ft 507 kts 65°
2026-04-15 07:01 35.47158 137.47612 29888 ft 509 kts 65°
2026-04-15 07:01 35.48673 137.51552 30058 ft 511 kts 65°
2026-04-15 07:01 35.50183 137.55501 30222 ft 513 kts 65°
2026-04-15 07:02 35.51692 137.59481 30377 ft 515 kts 65°
2026-04-15 07:02 35.53205 137.63469 30517 ft 516 kts 65°
2026-04-15 07:02 35.54722 137.67462 30647 ft 518 kts 65°
2026-04-15 07:02 35.56251 137.71488 30778 ft 519 kts 65°
2026-04-15 07:03 35.57774 137.75511 30884 ft 520 kts 65°
2026-04-15 07:03 35.59298 137.79544 30986 ft 521 kts 65°
2026-04-15 07:03 35.62321 137.87644 31134 ft 522 kts 66°
2026-04-15 07:04 35.65255 137.95823 31289 ft 523 kts 65°
2026-04-15 07:04 35.66994 137.99733 31315 ft 521 kts 51°
2026-04-15 07:04 35.69365 138.03082 31355 ft 517 kts 41°
2026-04-15 07:05 35.74938 138.08603 31457 ft 513 kts 32°
2026-04-15 07:05 35.80644 138.13904 31592 ft 515 kts 34°
2026-04-15 07:06 35.86219 138.19411 31689 ft 514 kts 34°
2026-04-15 07:06 35.91827 138.24905 31682 ft 515 kts 34°
2026-04-15 07:07 35.94630 138.27655 31885 ft 515 kts 34°
2026-04-15 07:07 35.97436 138.30410 32111 ft 515 kts 34°
2026-04-15 07:07 36.00239 138.33173 32360 ft 515 kts 34°
2026-04-15 07:07 36.03044 138.35933 32589 ft 516 kts 34°
2026-04-15 07:08 36.05810 138.38662 32787 ft 516 kts 34°
2026-04-15 07:08 36.08608 138.41429 32992 ft 515 kts 33°
2026-04-15 07:08 36.11418 138.44199 33182 ft 516 kts 33°
2026-04-15 07:08 36.14218 138.46966 33371 ft 516 kts 33°
2026-04-15 07:09 36.17018 138.49737 33563 ft 516 kts 34°
2026-04-15 07:09 36.19816 138.52509 33780 ft 515 kts 33°
2026-04-15 07:09 36.22617 138.55286 33972 ft 515 kts 34°
2026-04-15 07:09 36.25395 138.58094 34109 ft 516 kts 34°
2026-04-15 07:10 36.28173 138.60910 34239 ft 516 kts 34°
2026-04-15 07:10 36.30956 138.63733 34356 ft 517 kts 34°
2026-04-15 07:10 36.33747 138.66547 34506 ft 517 kts 33°
2026-04-15 07:10 36.36542 138.69345 34618 ft 517 kts 33°
2026-04-15 07:11 36.39348 138.72154 34738 ft 518 kts 33°
2026-04-15 07:11 36.42155 138.74962 34847 ft 519 kts 32°
2026-04-15 07:11 36.47790 138.80616 34947 ft 520 kts 32°
2026-04-15 07:12 36.53401 138.86260 34965 ft 518 kts 32°
2026-04-15 07:12 36.58991 138.91884 34976 ft 516 kts 32°
2026-04-15 07:13 36.64572 138.97522 34976 ft 516 kts 32°
2026-04-15 07:13 36.70102 139.03122 34977 ft 515 kts 32°
2026-04-15 07:14 36.75641 139.08735 34970 ft 515 kts 32°
2026-04-15 07:14 36.81223 139.14406 34959 ft 515 kts 32°
2026-04-15 07:15 36.86793 139.20029 34963 ft 515 kts 32°
2026-04-15 07:15 36.92352 139.25663 34959 ft 514 kts 32°
2026-04-15 07:16 36.97910 139.31302 34945 ft 514 kts 32°
2026-04-15 07:16 37.03466 139.36949 34881 ft 515 kts 32°
2026-04-15 07:17 37.06244 139.39782 34644 ft 515 kts 32°
2026-04-15 07:17 37.09016 139.42607 34118 ft 513 kts 32°
2026-04-15 07:17 37.11780 139.45418 33209 ft 510 kts 33°
2026-04-15 07:17 37.14538 139.48225 32117 ft 512 kts 33°
2026-04-15 07:18 37.17309 139.51018 31066 ft 512 kts 34°
2026-04-15 07:18 37.20078 139.53806 30261 ft 508 kts 35°
2026-04-15 07:18 37.22797 139.56602 29499 ft 502 kts 36°
2026-04-15 07:18 37.25447 139.59325 28795 ft 495 kts 36°
2026-04-15 07:19 37.28093 139.62037 28100 ft 488 kts 36°
2026-04-15 07:19 37.30706 139.64719 27428 ft 482 kts 35°
2026-04-15 07:19 37.33290 139.67358 26779 ft 476 kts 35°
2026-04-15 07:19 37.35840 139.69979 26165 ft 470 kts 35°
2026-04-15 07:20 37.38352 139.72566 25552 ft 465 kts 36°
2026-04-15 07:20 37.40637 139.75431 24935 ft 464 kts 47°
2026-04-15 07:20 37.42535 139.78700 24316 ft 462 kts 54°
2026-04-15 07:20 37.44228 139.82124 23701 ft 459 kts 56°
2026-04-15 07:21 37.45877 139.85537 23082 ft 454 kts 56°
2026-04-15 07:21 37.47553 139.88881 22450 ft 448 kts 54°
2026-04-15 07:21 37.49262 139.92130 21839 ft 443 kts 54°
2026-04-15 07:21 37.50950 139.95347 21239 ft 438 kts 54°
2026-04-15 07:22 37.52607 139.98539 20677 ft 433 kts 55°
2026-04-15 07:22 37.54244 140.01702 20129 ft 429 kts 55°
2026-04-15 07:22 37.55869 140.04836 19612 ft 425 kts 56°
2026-04-15 07:22 37.57476 140.07934 19112 ft 421 kts 56°
2026-04-15 07:23 37.59071 140.11010 18594 ft 417 kts 56°
2026-04-15 07:23 37.60647 140.14052 18076 ft 413 kts 56°
2026-04-15 07:23 37.62215 140.17060 17551 ft 408 kts 56°
2026-04-15 07:23 37.63770 140.20030 17018 ft 403 kts 56°
2026-04-15 07:24 37.65306 140.22971 16490 ft 399 kts 56°
2026-04-15 07:24 37.66815 140.25882 15994 ft 394 kts 56°
2026-04-15 07:24 37.68300 140.28771 15464 ft 390 kts 57°
2026-04-15 07:24 37.69763 140.31623 14949 ft 386 kts 57°
2026-04-15 07:25 37.71215 140.34447 14475 ft 381 kts 56°
2026-04-15 07:25 37.72652 140.37242 13983 ft 378 kts 56°
2026-04-15 07:25 37.74078 140.40015 13476 ft 374 kts 56°
2026-04-15 07:25 37.75478 140.42734 13178 ft 367 kts 56°
2026-04-15 07:26 37.76874 140.45450 13054 ft 370 kts 57°
2026-04-15 07:26 37.78249 140.48197 12986 ft 368 kts 58°
2026-04-15 07:26 37.79557 140.50922 12565 ft 366 kts 59°
2026-04-15 07:26 37.80831 140.53612 12292 ft 347 kts 59°
2026-04-15 07:27 37.82039 140.56154 11990 ft 330 kts 59°
2026-04-15 07:27 37.83196 140.58589 11685 ft 316 kts 59°
2026-04-15 07:27 37.84309 140.60937 11373 ft 305 kts 59°
2026-04-15 07:27 37.85389 140.63204 11014 ft 297 kts 60°
2026-04-15 07:28 37.86447 140.65435 10577 ft 294 kts 60°
2026-04-15 07:28 37.87484 140.67642 10116 ft 291 kts 61°
2026-04-15 07:28 37.88497 140.69840 9667 ft 286 kts 61°
2026-04-15 07:28 37.89493 140.72006 9156 ft 284 kts 61°
2026-04-15 07:29 37.90483 140.74162 8645 ft 282 kts 62°
2026-04-15 07:29 37.91465 140.76293 8127 ft 280 kts 61°
2026-04-15 07:29 37.92443 140.78416 7612 ft 277 kts 62°
2026-04-15 07:29 37.93409 140.80521 7090 ft 276 kts 62°
2026-04-15 07:30 37.94375 140.82608 6575 ft 273 kts 61°
2026-04-15 07:30 37.95329 140.84684 6037 ft 271 kts 62°
2026-04-15 07:30 37.96267 140.86741 5458 ft 269 kts 62°
2026-04-15 07:30 37.97204 140.88783 4923 ft 267 kts 62°
2026-04-15 07:31 37.98138 140.90815 4354 ft 266 kts 62°
2026-04-15 07:31 37.99059 140.92821 3966 ft 258 kts 62°
2026-04-15 07:31 37.99927 140.94750 3722 ft 245 kts 63°
2026-04-15 07:31 38.00767 140.96598 3395 ft 241 kts 63°
2026-04-15 07:32 38.01604 140.98435 3140 ft 240 kts 64°
2026-04-15 07:32 38.02437 141.00257 2885 ft 238 kts 63°
2026-04-15 07:32 38.03257 141.02055 2635 ft 237 kts 64°
2026-04-15 07:32 38.04083 141.03861 2384 ft 236 kts 64°
2026-04-15 07:33 38.04900 141.05658 2163 ft 234 kts 64°
2026-04-15 07:33 38.05712 141.07440 1917 ft 232 kts 63°
2026-04-15 07:33 38.06519 141.09202 1701 ft 229 kts 63°
2026-04-15 07:33 38.07319 141.10956 1574 ft 230 kts 64°
2026-04-15 07:34 38.08152 141.12691 1511 ft 230 kts 54°
2026-04-15 07:34 38.09449 141.13732 1489 ft 220 kts 15°
2026-04-15 07:34 38.10955 141.13974 1485 ft 216 kts
2026-04-15 07:34 38.12445 141.13850 1492 ft 215 kts 353°
2026-04-15 07:35 38.13945 141.13570 1488 ft 217 kts 350°
2026-04-15 07:35 38.15247 141.12799 1485 ft 202 kts 310°
2026-04-15 07:35 38.15786 141.11267 1480 ft 189 kts 276°
2026-04-15 07:35 38.15918 141.09600 1494 ft 189 kts 265°
2026-04-15 07:36 38.15842 141.08023 1492 ft 170 kts 258°
2026-04-15 07:36 38.15652 141.06575 1488 ft 163 kts 254°
2026-04-15 07:36 38.15459 141.05170 1480 ft 160 kts 255°
2026-04-15 07:36 38.15282 141.03768 1483 ft 167 kts 256°
2026-04-15 07:37 38.15133 141.02332 1476 ft 154 kts 258°
2026-04-15 07:37 38.15011 141.01026 1272 ft 140 kts 258°
2026-04-15 07:37 38.14893 140.99809 1065 ft 143 kts 258°
2026-04-15 07:37 38.14755 140.98508 864 ft 149 kts 259°
2026-04-15 07:38 38.14623 140.97250 660 ft 140 kts 261°
2026-04-15 07:38 38.14492 140.95978 480 ft 150 kts 262°
2026-04-15 07:38 38.14365 140.94679 276 ft 146 kts 262°
2026-04-15 07:38 38.14239 140.93394 88 ft 145 kts 263°
2026-04-15 07:39 38.14118 140.92201 17 ft 118 kts 262°
2026-04-15 07:39 38.14042 140.91476 16 ft 37 kts 263°
2026-04-15 07:39 38.13997 140.91386 14 ft 10 kts 169°
2026-04-15 07:39 38.13951 140.91459 12 ft 13 kts 116°
2026-04-15 07:40 38.13907 140.91568 11 ft 14 kts 118°
2026-04-15 07:40 38.13896 140.91686 12 ft 14 kts 82°
2026-04-15 07:40 38.13909 140.91818 11 ft 16 kts 83°
2026-04-15 07:40 38.13923 140.91964 11 ft 17 kts 83°
2026-04-15 07:41 38.13939 140.92115 11 ft 18 kts 82°
2026-04-15 07:41 38.13956 140.92275 11 ft 18 kts 83°
2026-04-15 07:41 38.13972 140.92436 11 ft 19 kts 82°
2026-04-15 07:41 38.13986 140.92567 11 ft 8 kts 82°
2026-04-15 07:42 38.13960 140.92621 11 ft 8 kts 166°
2026-04-15 07:42 38.13904 140.92632 10 ft 7 kts 172°
2026-04-15 07:42 38.13882 140.92635 10 ft 1 kts 172°
2026-04-15 07:42 38.13881 140.92636 10 ft 0 kts 172°